Flag for Germany Past Weather in Garmisch-Partenkirchen, Bavaria, Germany — Yesterday and Last 2 Weeks

Now
82 °F

Broken clouds.


Feels Like: 81 °F
Forecast: 53 / 75 °F
Wind: 7 mph from Northeast

Location: Innsbruck-Flughafen

Current Time: May 27, 2016 at 4:19:13 PM

Latest Report: May 27, 2016 at 3:50 PM


Visibility: N/A

Pressure: 29.89 "Hg (27.61 "Hg at 699m altitude)

Humidity: 37%

Dew Point: 54 °F

Location of Garmisch-PartenkirchenLocation

Past Weather in Garmisch-Partenkirchen — Graph

°F

Garmisch-Partenkirchen Temperature Yesterday

Maximum temperature yesterday: 79 °F (at 3:20 PM)
Minimum temperature yesterday: 52 °F (at 2:20 AM)
Average temperature yesterday: 64 °F

High & Low Weather Summary for the Past Weeks

 TemperatureHumidityPressure
High82 °F (May 22, 1:50 PM)100% (May 13, 7:20 AM)30.21 "Hg (May 13, 7:20 AM)
Low39 °F (May 18, 5:50 AM)23% (May 18, 3:50 PM)29.45 "Hg (May 12, 2:20 PM)
Average55 °F71%29.93 "Hg
* Reported May 12 2:20 PM — May 27 2:50 PM, Garmisch-Partenkirchen, Weather by CustomWeather, © 2016

Note: Actual official high and low records may vary slightly from our data, if they occured in-between our weather recording intervals... More about our weather records

Advertising

Garmisch-Partenkirchen Weather History for the Previous 24 Hours

Scroll right to see more
 ConditionsComfort  
Time TempWeatherWind HumidityBarometerVisibility
2:50 PM
Fri, May 27
82 °FPartly sunny.9 mph35%29.89 "HgN/A
2:20 PM82 °FPartly sunny.5 mph32%29.92 "HgN/A
1:50 PM81 °FPartly sunny.5 mph37%29.92 "HgN/A
1:20 PM81 °FPartly sunny.2 mph32%29.92 "HgN/A
12:50 PM79 °FPartly sunny.5 mph42%29.95 "HgN/A
12:20 PM75 °FPartly sunny.8 mph47%29.95 "HgN/A
11:50 AM75 °FPartly sunny.9 mph47%29.98 "HgN/A
11:20 AM73 °FPartly sunny.12 mph50%29.98 "HgN/A
10:50 AM72 °FPartly sunny.9 mph61%29.98 "HgN/A
10:20 AM68 °FSunny.10 mph60%30.01 "Hg10 mi
9:50 AM66 °FSunny.12 mph64%30.01 "Hg10 mi
9:20 AM64 °FPartly sunny.10 mph68%30.01 "HgN/A
8:50 AM63 °FPartly sunny.8 mph73%30.01 "HgN/A
8:20 AM59 °FPartly sunny.3 mph82%30.04 "HgN/A
7:50 AM57 °FPartly sunny.3 mph82%30.04 "HgN/A
7:20 AM55 °FPartly sunny.3 mph88%30.04 "HgN/A
6:50 AM55 °FPartly sunny.2 mph88%30.04 "HgN/A
6:20 AM54 °FPassing clouds.3 mph88%30.04 "HgN/A
5:50 AM54 °FPassing clouds.3 mph88%30.04 "HgN/A
5:20 AM54 °FCool.3 mph88%30.01 "HgN/A
4:50 AM54 °FCool.2 mph88%30.01 "HgN/A
4:20 AM54 °FPassing clouds.2 mph88%30.01 "HgN/A
3:50 AM55 °FPassing clouds.2 mph82%30.01 "HgN/A
3:20 AM54 °FPassing clouds.2 mph88%30.01 "HgN/A
2:50 AM55 °FCool.1 mph82%30.01 "HgN/A
2:20 AM55 °FCool.2 mph88%30.01 "HgN/A
1:50 AM55 °FPassing clouds.1 mph88%30.01 "HgN/A
1:20 AM57 °FPassing clouds.5 mph82%30.01 "HgN/A
12:50 AM59 °FPassing clouds.2 mph77%30.01 "HgN/A
12:20 AM59 °FPassing clouds.2 mph82%30.01 "HgN/A
11:50 PM
Thu, May 26
59 °FPassing clouds.2 mph77%30.01 "HgN/A
11:20 PM61 °FPassing clouds.2 mph77%30.01 "HgN/A
10:50 PM63 °FPassing clouds.1 mph73%29.98 "HgN/A
10:20 PM63 °FPassing clouds.1 mph73%29.98 "HgN/A
9:50 PM64 °FScattered clouds.1 mph68%29.98 "HgN/A
9:20 PM66 °FScattered clouds.2 mph64%29.98 "HgN/A
8:50 PM68 °FScattered clouds.1 mph60%29.95 "HgN/A
8:20 PM70 °FScattered clouds.2 mph60%29.95 "HgN/A
7:50 PM72 °FScattered clouds.5 mph50%29.95 "HgN/A
7:20 PM72 °FBroken clouds.5 mph50%29.95 "HgN/A
6:50 PM73 °FSprinkles. Broken clouds.7 mph47%29.95 "HgN/A
6:20 PM73 °FScattered clouds.8 mph47%29.95 "HgN/A
5:50 PM75 °FScattered clouds.9 mph41%29.95 "HgN/A
5:20 PM75 °FScattered clouds.9 mph39%29.92 "HgN/A
4:50 PM79 °FScattered clouds.10 mph39%29.92 "HgN/A
4:20 PM77 °FScattered clouds.9 mph39%29.95 "HgN/A
Weather by CustomWeather, © 2016

See weather overviewHow to use our weather pages